| time (UTC) | temp C | wind direction | speed KPH | gust KPH | rain 1hr cm | rain 24hr cm | rain mn cm | humidity % | barometer mb |
| 20260508133148 | 7 | 98 | 0.0 | 3.2 | 0.00 | 0.10 | 0.10 | 85 | 1011.2 |
| 20260508131627 | 7 | 92 | 0.0 | 3.2 | 0.00 | 0.10 | 0.10 | 84 | 1011.2 |
| 20260508130129 | 7 | 91 | 1.6 | 4.8 | 0.00 | 0.10 | 0.10 | 82 | 1011.0 |
| 20260508124624 | 7 | 72 | 3.2 | 9.7 | 0.00 | 0.10 | 0.10 | 83 | 1010.7 |
| 20260508123134 | 7 | 104 | 1.6 | 4.8 | 0.00 | 0.10 | 0.10 | 85 | 1010.4 |
| 20260508121630 | 6 | 92 | 1.6 | 8.0 | 0.00 | 0.10 | 0.10 | 88 | 1010.6 |
| 20260508120134 | 6 | 94 | 0.0 | 3.2 | 0.00 | 0.10 | 0.10 | 92 | 1010.6 |
| 20260508114647 | 5 | 108 | 0.0 | 1.6 | 0.00 | 0.10 | 0.10 | 93 | 1010.6 |
| 20260508113128 | 5 | 75 | 0.0 | 3.2 | 0.00 | 0.10 | 0.10 | 94 | 1010.7 |
| 20260508111629 | 4 | 77 | 0.0 | 0.0 | 0.00 | 0.10 | 0.10 | 94 | 1011.0 |
| 20260508110125 | 3 | 77 | 0.0 | 4.8 | 0.00 | 0.10 | 0.10 | 94 | 1011.0 |
| 20260508104628 | 3 | 73 | 0.0 | 1.6 | 0.00 | 0.10 | 0.10 | 94 | 1011.0 |
| 20260508103127 | 3 | 80 | 0.0 | 0.0 | 0.00 | 0.10 | 0.10 | 93 | 1010.6 |
| 20260508101624 | 3 | 80 | 0.0 | 1.6 | 0.00 | 0.10 | 0.10 | 93 | 1010.9 |
| 20260508100139 | 3 | 91 | 0.0 | 1.6 | 0.00 | 0.10 | 0.10 | 93 | 1010.8 |
| 20260508094637 | 3 | 94 | 0.0 | 0.0 | 0.00 | 0.10 | 0.10 | 93 | 1010.6 |
| 20260508093152 | 3 | 94 | 0.0 | 3.2 | 0.03 | 0.10 | 0.10 | 93 | 1010.6 |
| 20260508091623 | 3 | 72 | 0.0 | 3.2 | 0.03 | 0.10 | 0.10 | 92 | 1010.6 |
| 20260508090137 | 3 | 76 | 0.0 | 1.6 | 0.03 | 0.10 | 0.10 | 92 | 1010.6 |
| 20260508084631 | 3 | 77 | 0.0 | 1.6 | 0.03 | 0.10 | 0.10 | 92 | 1010.5 |
| 20260508083204 | 4 | 75 | 0.0 | 1.6 | 0.00 | 0.08 | 0.08 | 91 | 1010.4 |
| 20260508081658 | 4 | 75 | 0.0 | 1.6 | 0.00 | 0.08 | 0.08 | 91 | 1010.5 |
| 20260508080136 | 4 | 75 | 0.0 | 1.6 | 0.00 | 0.08 | 0.08 | 91 | 1010.7 |
| 20260508074701 | 4 | 84 | 0.0 | 0.0 | 0.03 | 0.08 | 0.08 | 90 | 1010.8 |
| 20260508073136 | 4 | 84 | 0.0 | 0.0 | 0.08 | 0.08 | 0.08 | 89 | 1010.7 |
| 20260508071634 | 4 | 102 | 0.0 | 0.0 | 0.08 | 0.08 | 0.08 | 88 | 1010.8 |
| 20260508070127 | 5 | 108 | 0.0 | 1.6 | 0.08 | 0.08 | 0.08 | 86 | 1010.7 |
| 20260508064642 | 5 | 107 | 1.6 | 9.7 | 0.05 | 0.05 | 0.05 | 84 | 1010.9 |
| 20260508061645 | 6 | 88 | 0.0 | 4.8 | 0.00 | 0.00 | 0.00 | 73 | 1010.3 |
| 20260508060210 | 6 | 82 | 1.6 | 4.8 | 0.00 | 0.00 | 0.00 | 73 | 1010.2 |
| 20260508054629 | 5 | 91 | 0.0 | 0.0 | 0.00 | 0.00 | 0.00 | 77 | 1010.0 |
| 20260508053147 | 5 | 91 | 0.0 | 0.0 | 0.00 | 0.00 | 0.00 | 79 | 1009.9 |
| 20260508051644 | 5 | 91 | 0.0 | 0.0 | 0.00 | 0.00 | 0.00 | 79 | 1010.0 |
| 20260508050141 | 5 | 91 | 0.0 | 0.0 | 0.00 | 0.00 | 0.00 | 78 | 1010.0 |
| 20260508044636 | 5 | 91 | 0.0 | 0.0 | 0.00 | 0.00 | 0.00 | 77 | 1010.0 |
| 20260508043134 | 5 | 91 | 0.0 | 0.0 | 0.00 | 0.00 | 0.00 | 77 | 1010.0 |
| 20260508041628 | 5 | 91 | 0.0 | 0.0 | 0.00 | 0.00 | 0.00 | 77 | 1010.1 |
| 20260508040141 | 5 | 91 | 0.0 | 0.0 | 0.00 | 0.00 | 0.00 | 77 | 1009.9 |
| 20260508034632 | 5 | 91 | 0.0 | 1.6 | 0.00 | 0.00 | 0.00 | 77 | 1009.9 |
| 20260508033134 | 4 | 91 | 0.0 | 0.0 | 0.00 | 0.00 | 0.00 | 76 | 1010.0 |
| 20260508031634 | 5 | 91 | 0.0 | 0.0 | 0.00 | 0.00 | 0.00 | 74 | 1009.7 |
| 20260508030126 | 5 | 91 | 0.0 | 0.0 | 0.00 | 0.00 | 0.00 | 73 | 1009.6 |
| 20260508024650 | 5 | 91 | 0.0 | 1.6 | 0.00 | 0.00 | 0.00 | 71 | 1009.4 |
| 20260508023210 | 6 | 91 | 0.0 | 0.0 | 0.00 | 0.00 | 0.00 | 67 | 1009.1 |
| 20260508021645 | 7 | 91 | 0.0 | 0.0 | 0.00 | 0.00 | 0.00 | 62 | 1009.3 |
| 20260508020124 | 7 | 91 | 0.0 | 0.0 | 0.00 | 0.00 | 0.00 | 58 | 1009.7 |
| 20260508014701 | 8 | 91 | 0.0 | 0.0 | 0.00 | 0.00 | 0.00 | 55 | 1009.6 |
| 20260508013123 | 8 | 91 | 0.0 | 0.0 | 0.00 | 0.00 | 0.00 | 54 | 1009.5 |
| 20260508011639 | 9 | 84 | 0.0 | 1.6 | 0.00 | 0.00 | 0.00 | 50 | 1009.5 |
| 20260508010138 | 9 | 120 | 0.0 | 0.0 | 0.00 | 0.00 | 0.00 | 50 | 1009.5 |
| 20260508004634 | 10 | 120 | 0.0 | 4.8 | 0.00 | 0.00 | 0.00 | 47 | 1009.3 |
| 20260508003151 | 10 | 111 | 1.6 | 3.2 | 0.00 | 0.00 | 0.00 | 48 | 1009.5 |
| 20260508001629 | 10 | 114 | 0.0 | 1.6 | 0.00 | 0.00 | 0.00 | 47 | 1009.2 |
| 20260508000146 | 10 | 132 | 0.0 | 1.6 | 0.00 | 0.00 | 0.00 | 46 | 1009.0 |
| 20260507234623 | 10 | 107 | 0.0 | 3.2 | 0.00 | 0.00 | 0.00 | 45 | 1009.0 |
| 20260507233124 | 10 | 105 | 1.6 | 8.0 | 0.00 | 0.00 | 0.00 | 43 | 1008.9 |
| 20260507231644 | 11 | 105 | 0.0 | 4.8 | 0.00 | 0.00 | 0.00 | 44 | 1008.9 |
| 20260507230159 | 11 | 139 | 0.0 | 9.7 | 0.00 | 0.00 | 0.00 | 42 | 1008.9 |
| 20260507224655 | 12 | 103 | 1.6 | 6.4 | 0.00 | 0.00 | 0.00 | 41 | 1008.8 |
| 20260507223127 | 12 | 105 | 3.2 | 8.0 | 0.00 | 0.00 | 0.00 | 40 | 1008.8 |
| 20260507221644 | 12 | 165 | 1.6 | 12.9 | 0.00 | 0.00 | 0.00 | 41 | 1008.6 |
| 20260507220136 | 12 | 115 | 1.6 | 9.7 | 0.00 | 0.00 | 0.00 | 39 | 1008.8 |
| 20260507214654 | 12 | 161 | 3.2 | 12.9 | 0.00 | 0.00 | 0.00 | 40 | 1008.8 |
| 20260507213126 | 13 | 96 | 1.6 | 14.5 | 0.00 | 0.00 | 0.00 | 40 | 1008.8 |
| 20260507211713 | 12 | 86 | 3.2 | 12.9 | 0.00 | 0.00 | 0.00 | 40 | 1008.8 |
| 20260507210137 | 12 | 56 | 4.8 | 9.7 | 0.00 | 0.00 | 0.00 | 39 | 1008.7 |
| 20260507204628 | 13 | 129 | 1.6 | 20.9 | 0.00 | 0.03 | 0.00 | 39 | 1008.7 |
| 20260507203134 | 13 | 162 | 1.6 | 16.1 | 0.00 | 0.03 | 0.00 | 41 | 1008.8 |
| 20260507201628 | 13 | 162 | 3.2 | 11.3 | 0.00 | 0.03 | 0.00 | 40 | 1008.8 |
| 20260507200128 | 13 | 162 | 4.8 | 17.7 | 0.00 | 0.03 | 0.00 | 37 | 1008.9 |
| 20260507194628 | 13 | 98 | 8.0 | 17.7 | 0.00 | 0.05 | 0.00 | 40 | 1009.0 |
| 20260507193129 | 13 | 183 | 6.4 | 14.5 | 0.00 | 0.05 | 0.00 | 44 | 1009.1 |
| 20260507191641 | 12 | 89 | 3.2 | 12.9 | 0.00 | 0.05 | 0.00 | 45 | 1009.4 |
| 20260507190132 | 12 | 156 | 1.6 | 6.4 | 0.00 | 0.05 | 0.00 | 48 | 1009.6 |
| 20260507184629 | 12 | 118 | 1.6 | 11.3 | 0.00 | 0.08 | 0.00 | 48 | 1009.6 |
| 20260507183142 | 12 | 98 | 6.4 | 12.9 | 0.00 | 0.08 | 0.00 | 47 | 1009.9 |
| 20260507181630 | 11 | 107 | 6.4 | 16.1 | 0.00 | 0.08 | 0.00 | 49 | 1010.0 |
| 20260507180143 | 11 | 146 | 3.2 | 8.0 | 0.00 | 0.08 | 0.00 | 50 | 1010.1 |
| 20260507174656 | 11 | 114 | 3.2 | 11.3 | 0.00 | 0.13 | 0.00 | 52 | 1010.0 |
| 20260507173130 | 12 | 160 | 3.2 | 9.7 | 0.00 | 0.13 | 0.00 | 50 | 1010.2 |
| 20260507171623 | 11 | 130 | 3.2 | 11.3 | 0.00 | 0.13 | 0.00 | 52 | 1010.4 |
| 20260507170142 | 11 | 74 | 1.6 | 9.7 | 0.00 | 0.13 | 0.00 | 54 | 1010.4 |
| 20260507164633 | 11 | 77 | 4.8 | 9.7 | 0.00 | 0.25 | 0.00 | 56 | 1010.5 |
| 20260507163126 | 10 | 150 | 1.6 | 9.7 | 0.00 | 0.25 | 0.00 | 58 | 1010.8 |
| 20260507161639 | 10 | 138 | 3.2 | 9.7 | 0.00 | 0.25 | 0.00 | 56 | 1011.1 |
| 20260507160130 | 10 | 153 | 1.6 | 9.7 | 0.00 | 0.25 | 0.00 | 60 | 1011.2 |
| 20260507154644 | 10 | 114 | 1.6 | 9.7 | 0.00 | 0.38 | 0.00 | 58 | 1011.1 |
| 20260507153221 | 9 | 42 | 1.6 | 9.7 | 0.00 | 0.38 | 0.00 | 60 | 1011.5 |
| 20260507151632 | 8 | 63 | 1.6 | 9.7 | 0.00 | 0.38 | 0.00 | 60 | 1011.7 |
| 20260507150129 | 9 | 146 | 3.2 | 14.5 | 0.00 | 0.38 | 0.00 | 59 | 1011.6 |
| 20260507144630 | 10 | 157 | 3.2 | 8.0 | 0.00 | 0.46 | 0.00 | 60 | 1011.5 |
| 20260507143140 | 9 | 165 | 1.6 | 6.4 | 0.00 | 0.46 | 0.00 | 60 | 1011.7 |
| 20260507141635 | 8 | 158 | 3.2 | 11.3 | 0.00 | 0.46 | 0.00 | 60 | 1011.6 |
| 20260507140128 | 8 | 113 | 0.0 | 9.7 | 0.00 | 0.46 | 0.00 | 60 | 1011.8 |
| 20260507134647 | 8 | 84 | 3.2 | 9.7 | 0.00 | 0.79 | 0.00 | 61 | 1011.7 |